Regional Weather Roundup
Issued by NWS Columbia, SC

Home | Current Version | Previous Version | Text Only | Print | Product List | Glossary On
Versions: 1 2 3 4 5 6 7 8 9 10 11 12 13 14 15 16 17 18 19 20 21 22 23 24 25 26 27 28 29 30 31 32 33 34 35 36 37 38 39 40 41 42 43 44 45 46 47 48 49 50
000
ASUS42 KCAE 040410
RWRCAE
SOUTH CAROLINA REGIONAL WEATHER ROUNDUP
NATIONAL WEATHER SERVICE COLUMBIA SC
1200 AM EDT FRI SEP 04 2015

Note: "fair" indicates few or no clouds below 12,000 feet with no
significant weather and/or obstructions to visibility.

SCZ003-006-007-009-010-040500-
UPSTATE

CITY           SKY/WX    TMP DP  RH WIND       PRES   REMARKS
ANDERSON       MOCLDY    73  69  87 CALM      29.96S
CLEMSON        PTCLDY    77  67  71 N3        29.97S
GREENVILLE     PTCLDY    77  66  68 N5        29.97F
GREENWOOD      PTCLDY    74  72  93 N5        29.96S
GREER          MOCLDY    77  67  71 N3        29.95S
ROCK HILL      CLEAR     72  66  81 CALM      29.95S
$$

SCZ027-028-031-032-036-040500-
CENTRAL

CITY           SKY/WX    TMP DP  RH WIND       PRES   REMARKS
COLUMBIA APT   MOCLDY    77  72  84 W5        29.91S
COLUMBIA OWENS CLEAR     77  71  82 CALM      29.92S
MCENTIRE ANGB  CLEAR     73  71  94 CALM      29.92S
ORANGEBURG     PTCLDY    77  73  87 CALM      29.92S
SUMTER SHAW    CLEAR     76  73  90 CALM      29.89F
$$

SCZ034-044-045-048-050-040500-
COAST

CITY           SKY/WX    TMP DP  RH WIND       PRES   REMARKS
CHARLESTON APT PTCLDY    78  74  87 SW3       29.91S
BEAUFORT       MOCLDY    79  76  90 SW3       29.91F
$$




USA.gov is the U.S. government's official web portal to all federal, state and local government web resources and services.